Location: Pilipovskiye Korichintsy
(49.1833°N, 27.4667°E)
Time: 12:49:13
(UTC+00:00)

Cosmos 2360 Rocket - Pass Details

Date: 14 July 2020
Orbit: 832 x 846 km, 71.0° (Epoch: 07 August)

Event Time Altitude Azimuth Distance (km) Brightness Sun altitude
Rises 01:33:35 0° 334° (NNW) 3,419 5.6 -6.7°
Reaches altitude 10° 01:36:11 10° 341° (NNW) 2,480 5.0 -6.4°
Maximum altitude 01:41:35 42° 52° (NE) 1,192 3.8 -5.8°
Drops below altitude 10° 01:46:56 10° 123° (ESE) 2,466 4.8 -5.1°
Sets 01:49:31 0° 130° (SE) 3,396 5.5 -4.8°
